Location: Alfortville
(48.8058°N, 2.4204°E)
Time: 13:36:29
(UTC+00:00)

Meteor 1-19 Rocket - Pass Details

Date: 13 December 2023
Orbit: 806 x 928 km, 81.2° (Epoch: 01 March)

Event Time Altitude Azimuth Distance (km) Brightness Sun altitude
Rises 18:48:37 0° 184° (S) 3,509 7.5 -27.6°
Reaches altitude 10° 18:51:03 10° 183° (S) 2,586 6.8 -28.0°
Enters shadow 18:55:15 49° 172° (S) 1,178 4.8 -28.7°
